Weather History for Kaltag, AK

Change the Weather History Date:

Thursday, November 29, 2012

  Actual Average (PAGA) Record (PAGA)
Temperature  
Mean Temperature -14 °F -  
Max Temperature -9 °F 5 °F 45 °F (1979)
Min Temperature -22 °F -10 °F -49 °F (1990)
Degree Days  
Heating Degree Days 80    
Moisture  
Dew Point -21 °F    
Average Humidity 74    
Maximum Humidity 79    
Minimum Humidity 70    
Precipitation  
Precipitation 0.00 in - - ()
Sea Level Pressure  
Sea Level Pressure 30.32 in    
Wind  
Wind Speed 4 mph (SW)    
Max Wind Speed 6 mph    
Max Gust Speed -    
Visibility 10 miles    
Events      
Averages and records for this station are not official NWS values.
T = Trace of Precipitation, MM = Missing Value Source: NWS Daily Summary

Daily Weather History Graph

Daily Weather History Graph

Search for Another Location

Airport:

Trip Planner

Search our weather history database for the weather conditions in past years. The results will help you decide how hot, cold, wet, or windy it might be!

Date:

Astronomy

Nov. 29, 2012 Rise Set
Actual Time 10:51 AM AKST 3:54 PM AKST
Civil Twilight 9:41 AM AKST 5:05 PM AKST
Nautical Twilight 8:35 AM AKST 6:11 PM AKST
Astronomical Twilight 7:36 AM AKST 7:09 PM AKST
Moon 5:04 PM AKST (11/29) 11:50 AM AKST (11/29)
Length of Visible Light 7h 24m
Length of Day
5h 02m
Full, 99% of the Moon is Illuminated
Nov 29
Full
Dec 6
Last Quarter
Dec 12
New
Dec 19
First Quarter
Dec 28
Full

Hourly Weather History & Observations

Time (AKST) Temp. Windchill Dew Point Humidity Pressure Visibility Wind Dir Wind Speed Gust Speed Precip Events Conditions
12:53 AM -17.0 °F -31.7 °F -22.0 °F 78% 30.35 in 10.0 mi SW 5.8 mph - N/A   Clear
1:53 AM -17.0 °F -29.7 °F -23.1 °F 74% 30.34 in 10.0 mi SW 4.6 mph - N/A   Clear
3:53 AM -13.0 °F -27.0 °F -18.9 °F 75% 30.32 in 10.0 mi SW 5.8 mph - N/A   Clear
4:53 AM -15.0 °F -27.4 °F -20.9 °F 75% 30.31 in 10.0 mi SW 4.6 mph - N/A   Clear
5:53 AM -11.9 °F -25.7 °F -18.9 °F 71% 30.31 in 10.0 mi SW 5.8 mph - N/A   Clear
6:53 AM -15.0 °F -25.0 °F -22.0 °F 71% 30.30 in 10.0 mi SW 3.5 mph - N/A   Clear
7:53 AM -15.0 °F -27.4 °F -20.9 °F 75% 30.30 in 10.0 mi WSW 4.6 mph - N/A   Clear
8:53 AM -9.0 °F -20.4 °F -14.1 °F 79% 30.29 in 10.0 mi SW 4.6 mph - N/A   Clear
9:53 AM -9.0 °F -20.4 °F -15.0 °F 75% 30.29 in 10.0 mi SW 4.6 mph - N/A   Clear
10:53 AM -9.0 °F -20.4 °F -15.0 °F 75% 30.29 in 10.0 mi SW 4.6 mph - N/A   Clear
11:53 AM -11.9 °F -23.8 °F -18.0 °F 74% 30.30 in 10.0 mi SW 4.6 mph - N/A   Clear
12:53 PM -11.9 °F - -18.0 °F 74% 30.30 in 10.0 mi Calm Calm - N/A   Clear
1:53 PM -13.0 °F - -18.9 °F 75% 30.30 in 10.0 mi Calm Calm - N/A   Clear
2:53 PM -9.9 °F - -16.1 °F 74% 30.30 in 10.0 mi North - - N/A   Clear
3:53 PM -13.0 °F - -18.0 °F 78% 30.31 in 10.0 mi Calm Calm - N/A   Clear
4:53 PM -13.0 °F - -18.0 °F 78% 30.32 in 10.0 mi Calm Calm - N/A   Clear
5:53 PM -18.0 °F - -24.0 °F 74% 30.32 in 10.0 mi Calm Calm - N/A   Clear
6:53 PM -17.0 °F - -24.0 °F 70% 30.34 in 10.0 mi Calm Calm - N/A   Clear
7:53 PM -18.9 °F - -24.0 °F 78% 30.36 in 10.0 mi Calm Calm - N/A   Clear
8:53 PM -18.9 °F - -26.0 °F 70% 30.36 in 10.0 mi Calm Calm - N/A   Clear
9:53 PM -18.0 °F - -25.1 °F 70% 30.35 in 10.0 mi Calm Calm - N/A   Clear
10:53 PM -20.0 °F - -26.0 °F 74% 30.36 in 10.0 mi Calm Calm - N/A   Clear
11:53 PM -22.0 °F - -27.9 °F 74% 30.35 in 10.0 mi Calm Calm - N/A   Clear